Year,Month,Day,Hour,Minute,Value (Times are PST for temperature in C)
2016,03,19,00,00,4.20
2016,03,19,00,01,4.20
2016,03,19,00,02,4.20
2016,03,19,00,03,4.20
2016,03,19,00,04,4.20
2016,03,19,00,05,4.30
2016,03,19,00,06,4.30
2016,03,19,00,07,4.30
2016,03,19,00,08,4.30
2016,03,19,00,09,4.30
2016,03,19,00,10,4.30
2016,03,19,00,11,4.30
2016,03,19,00,12,4.30
2016,03,19,00,13,4.30
2016,03,19,00,14,4.30
2016,03,19,00,15,4.30
2016,03,19,00,16,4.40
2016,03,19,00,17,4.40
2016,03,19,00,18,4.40
2016,03,19,00,19,4.50
2016,03,19,00,20,4.50
2016,03,19,00,21,4.60
2016,03,19,00,22,4.60
2016,03,19,00,23,4.60
2016,03,19,00,24,4.60
2016,03,19,00,25,4.70
2016,03,19,00,26,4.60
2016,03,19,00,27,4.60
2016,03,19,00,28,4.70
2016,03,19,00,29,4.70
2016,03,19,00,30,4.60
2016,03,19,00,31,4.70
2016,03,19,00,32,4.70
2016,03,19,00,33,4.70
2016,03,19,00,34,4.70
2016,03,19,00,35,4.70
2016,03,19,00,36,4.70
2016,03,19,00,37,4.70
2016,03,19,00,38,4.70
2016,03,19,00,39,4.70
2016,03,19,00,40,4.70
2016,03,19,00,41,4.70
2016,03,19,00,42,4.70
2016,03,19,00,43,4.70
2016,03,19,00,44,4.60
2016,03,19,00,45,4.60
2016,03,19,00,46,4.60
2016,03,19,00,47,4.60
2016,03,19,00,48,4.60
2016,03,19,00,49,4.60
2016,03,19,00,50,4.70
2016,03,19,00,51,4.70
2016,03,19,00,52,4.70
2016,03,19,00,53,4.70
2016,03,19,00,54,4.70
2016,03,19,00,55,4.70
2016,03,19,00,56,4.70
2016,03,19,00,57,4.70
2016,03,19,00,58,4.70
2016,03,19,00,59,4.70
2016,03,19,01,00,4.70
2016,03,19,01,01,4.70
2016,03,19,01,02,4.70
2016,03,19,01,03,4.70
2016,03,19,01,04,4.70
2016,03,19,01,05,4.70
2016,03,19,01,06,4.70
2016,03,19,01,07,4.70
2016,03,19,01,08,4.70
2016,03,19,01,09,4.70
2016,03,19,01,10,4.80
2016,03,19,01,11,4.80
2016,03,19,01,12,4.80
2016,03,19,01,13,4.80
2016,03,19,01,14,4.80
2016,03,19,01,15,4.80
2016,03,19,01,16,4.80
2016,03,19,01,17,4.80
2016,03,19,01,18,4.80
2016,03,19,01,19,4.80
2016,03,19,01,20,4.80
2016,03,19,01,21,4.80
2016,03,19,01,22,4.80
2016,03,19,01,23,4.80
2016,03,19,01,24,4.80
2016,03,19,01,25,4.80
2016,03,19,01,26,4.80
2016,03,19,01,27,4.80
2016,03,19,01,28,4.80
2016,03,19,01,29,4.80
2016,03,19,01,30,4.80
2016,03,19,01,31,4.80
2016,03,19,01,32,4.80
2016,03,19,01,33,4.80
2016,03,19,01,34,4.80
2016,03,19,01,35,4.80
2016,03,19,01,36,4.80
2016,03,19,01,37,4.80
2016,03,19,01,38,4.80
2016,03,19,01,39,4.80
2016,03,19,01,40,4.80
2016,03,19,01,41,4.80
2016,03,19,01,42,4.80
2016,03,19,01,43,4.80
2016,03,19,01,44,4.80
2016,03,19,01,45,4.80
2016,03,19,01,46,4.80
2016,03,19,01,47,4.80
2016,03,19,01,48,4.80
2016,03,19,01,49,4.80
2016,03,19,01,50,4.80
2016,03,19,01,51,4.80
2016,03,19,01,52,4.80
2016,03,19,01,53,4.80
2016,03,19,01,54,4.80
2016,03,19,01,55,4.80
2016,03,19,01,56,4.80
2016,03,19,01,57,4.80
2016,03,19,01,58,4.80
2016,03,19,01,59,4.80
2016,03,19,02,00,4.80
2016,03,19,02,01,4.90
2016,03,19,02,02,4.90
2016,03,19,02,03,4.90
2016,03,19,02,04,4.90
2016,03,19,02,05,4.90
2016,03,19,02,06,4.90
2016,03,19,02,07,4.90
2016,03,19,02,08,4.90
2016,03,19,02,09,4.90
2016,03,19,02,10,4.90
2016,03,19,02,11,4.80
2016,03,19,02,12,4.80
2016,03,19,02,13,4.80
2016,03,19,02,14,4.80
2016,03,19,02,15,4.80
2016,03,19,02,16,4.80
2016,03,19,02,17,4.80
2016,03,19,02,18,4.80
2016,03,19,02,19,4.80
2016,03,19,02,20,4.80
2016,03,19,02,21,4.80
2016,03,19,02,22,4.80
2016,03,19,02,23,4.80
2016,03,19,02,24,4.80
2016,03,19,02,25,4.80
2016,03,19,02,26,4.80
2016,03,19,02,27,4.80
2016,03,19,02,28,4.80
2016,03,19,02,29,4.80
2016,03,19,02,30,4.80
2016,03,19,02,31,4.80
2016,03,19,02,32,4.90
2016,03,19,02,33,4.90
2016,03,19,02,34,4.90
2016,03,19,02,35,5.00
2016,03,19,02,36,5.00
2016,03,19,02,37,5.10
2016,03,19,02,38,5.10
2016,03,19,02,39,5.10
2016,03,19,02,40,5.10
2016,03,19,02,41,5.20
2016,03,19,02,42,5.20
2016,03,19,02,43,5.30
2016,03,19,02,44,5.40
2016,03,19,02,45,5.50
2016,03,19,02,46,5.60
2016,03,19,02,47,5.60
2016,03,19,02,48,5.70
2016,03,19,02,49,5.70
2016,03,19,02,50,5.70
2016,03,19,02,51,5.80
2016,03,19,02,52,5.80
2016,03,19,02,53,5.80
2016,03,19,02,54,5.80
2016,03,19,02,55,5.80
2016,03,19,02,56,5.80
2016,03,19,02,57,5.80
2016,03,19,02,58,5.80
2016,03,19,02,59,5.80
2016,03,19,03,00,5.80
2016,03,19,03,01,5.90
2016,03,19,03,02,5.90
2016,03,19,03,03,5.90
2016,03,19,03,04,5.90
2016,03,19,03,05,5.90
2016,03,19,03,06,5.90
2016,03,19,03,07,5.90
2016,03,19,03,08,5.90
2016,03,19,03,09,5.90
2016,03,19,03,10,5.80
2016,03,19,03,11,5.80
2016,03,19,03,12,5.80
2016,03,19,03,13,5.70
2016,03,19,03,14,5.70
2016,03,19,03,15,5.70
2016,03,19,03,16,5.70
2016,03,19,03,17,5.70
2016,03,19,03,18,5.60
2016,03,19,03,19,5.60
2016,03,19,03,20,5.60
2016,03,19,03,21,5.60
2016,03,19,03,22,5.60
2016,03,19,03,23,5.60
2016,03,19,03,24,5.50
2016,03,19,03,25,5.50
2016,03,19,03,26,5.50
2016,03,19,03,27,5.50
2016,03,19,03,28,5.40
2016,03,19,03,29,5.40
2016,03,19,03,30,5.40
2016,03,19,03,31,5.40
2016,03,19,03,32,5.40
2016,03,19,03,33,5.40
2016,03,19,03,34,5.40
2016,03,19,03,35,5.40
2016,03,19,03,36,5.40
2016,03,19,03,37,5.40
2016,03,19,03,38,5.40
2016,03,19,03,39,5.40
2016,03,19,03,40,5.40
2016,03,19,03,41,5.40
2016,03,19,03,42,5.40
2016,03,19,03,43,5.50
2016,03,19,03,44,5.50
2016,03,19,03,45,5.60
2016,03,19,03,46,5.70
2016,03,19,03,47,5.70
2016,03,19,03,48,5.70
2016,03,19,03,49,5.80
2016,03,19,03,50,5.80
2016,03,19,03,51,5.90
2016,03,19,03,52,6.00
2016,03,19,03,53,6.10
2016,03,19,03,54,6.10
2016,03,19,03,55,6.10
2016,03,19,03,56,6.20
2016,03,19,03,57,6.40
2016,03,19,03,58,6.50
2016,03,19,03,59,6.70
2016,03,19,04,00,6.80
2016,03,19,04,01,6.90
2016,03,19,04,02,7.00
2016,03,19,04,03,7.10
2016,03,19,04,04,7.10
2016,03,19,04,05,7.00
2016,03,19,04,06,7.00
2016,03,19,04,07,6.90
2016,03,19,04,08,6.90
2016,03,19,04,09,6.90
2016,03,19,04,10,6.90
2016,03,19,04,11,6.80
2016,03,19,04,12,6.80
2016,03,19,04,13,6.80
2016,03,19,04,14,6.80
2016,03,19,04,15,6.70
2016,03,19,04,16,6.70
2016,03,19,04,17,6.70
2016,03,19,04,18,6.70
2016,03,19,04,19,6.70
2016,03,19,04,20,6.70
2016,03,19,04,21,6.70
2016,03,19,04,22,6.70
2016,03,19,04,23,6.70
2016,03,19,04,24,6.70
2016,03,19,04,25,6.70
2016,03,19,04,26,6.70
2016,03,19,04,27,6.70
2016,03,19,04,28,6.70
2016,03,19,04,29,6.70
2016,03,19,04,30,6.70
2016,03,19,04,31,6.70
2016,03,19,04,32,6.70
2016,03,19,04,33,6.70
2016,03,19,04,34,6.70
2016,03,19,04,35,6.60
2016,03,19,04,36,6.60
2016,03,19,04,37,6.70
2016,03,19,04,38,6.70
2016,03,19,04,39,6.70
2016,03,19,04,40,6.70
2016,03,19,04,41,6.70
2016,03,19,04,42,6.70
2016,03,19,04,43,6.70
2016,03,19,04,44,6.80
2016,03,19,04,45,6.80
2016,03,19,04,46,6.90
2016,03,19,04,47,7.10
2016,03,19,04,48,7.20
2016,03,19,04,49,7.20
2016,03,19,04,50,7.30
2016,03,19,04,51,7.40
2016,03,19,04,52,7.50
2016,03,19,04,53,7.60
2016,03,19,04,54,7.60
2016,03,19,04,55,7.70
2016,03,19,04,56,7.70
2016,03,19,04,57,7.80
2016,03,19,04,58,7.80
2016,03,19,04,59,7.90
2016,03,19,05,00,7.90
2016,03,19,05,01,8.00
2016,03,19,05,02,8.10
2016,03,19,05,03,8.10
2016,03,19,05,04,8.20
2016,03,19,05,05,8.20
2016,03,19,05,06,8.20
2016,03,19,05,07,8.20
2016,03,19,05,08,8.30
2016,03,19,05,09,8.30
2016,03,19,05,10,8.30
2016,03,19,05,11,8.30
2016,03,19,05,12,8.30
2016,03,19,05,13,8.30
2016,03,19,05,14,8.40
2016,03,19,05,15,8.40
2016,03,19,05,16,8.40
2016,03,19,05,17,8.40
2016,03,19,05,18,8.50
2016,03,19,05,19,8.50
2016,03,19,05,20,8.60
2016,03,19,05,21,8.60
2016,03,19,05,22,8.60
2016,03,19,05,23,8.60
2016,03,19,05,24,8.70
2016,03,19,05,25,8.70
2016,03,19,05,26,8.70
2016,03,19,05,27,8.70
2016,03,19,05,28,8.70
2016,03,19,05,29,8.70
2016,03,19,05,30,8.70
2016,03,19,05,31,8.70
2016,03,19,05,32,8.70
2016,03,19,05,33,8.70
2016,03,19,05,34,8.70
2016,03,19,05,35,8.80
2016,03,19,05,36,8.80
2016,03,19,05,37,8.80
2016,03,19,05,38,8.80
2016,03,19,05,39,8.80
2016,03,19,05,40,8.80
2016,03,19,05,41,8.80
2016,03,19,05,42,8.80
2016,03,19,05,43,8.80
2016,03,19,05,44,8.80
2016,03,19,05,45,8.80
2016,03,19,05,46,8.80
2016,03,19,05,47,8.80
2016,03,19,05,48,8.80
2016,03,19,05,49,8.80
2016,03,19,05,50,8.80
2016,03,19,05,51,8.80
2016,03,19,05,52,8.80
2016,03,19,05,53,8.80
2016,03,19,05,54,8.80
2016,03,19,05,55,8.80
2016,03,19,05,56,8.80
2016,03,19,05,57,8.80
2016,03,19,05,58,8.80
2016,03,19,05,59,8.80
2016,03,19,06,00,8.80
2016,03,19,06,01,8.80
2016,03,19,06,02,8.80
2016,03,19,06,03,8.80
2016,03,19,06,04,8.80
2016,03,19,06,05,8.80
2016,03,19,06,06,8.80
2016,03,19,06,07,8.80
2016,03,19,06,08,8.80
2016,03,19,06,09,8.80
2016,03,19,06,10,8.80
2016,03,19,06,11,8.80
2016,03,19,06,12,8.80
2016,03,19,06,13,8.80
2016,03,19,06,14,8.80
2016,03,19,06,15,8.80
2016,03,19,06,16,8.80
2016,03,19,06,17,8.80
2016,03,19,06,18,8.80
2016,03,19,06,19,8.80
2016,03,19,06,20,8.80
2016,03,19,06,21,8.80
2016,03,19,06,22,8.90
2016,03,19,06,23,8.90
2016,03,19,06,24,8.90
2016,03,19,06,25,8.90
2016,03,19,06,26,8.90
2016,03,19,06,27,8.90
2016,03,19,06,28,8.90
2016,03,19,06,29,8.90
2016,03,19,06,30,8.90
2016,03,19,06,31,8.90
2016,03,19,06,32,8.90
2016,03,19,06,33,8.90
2016,03,19,06,34,8.90
2016,03,19,06,35,8.90
2016,03,19,06,36,8.90
2016,03,19,06,37,8.90
2016,03,19,06,38,8.90
2016,03,19,06,39,8.90
2016,03,19,06,40,8.90
2016,03,19,06,41,8.90
2016,03,19,06,42,8.90
2016,03,19,06,43,8.90
2016,03,19,06,44,8.90
2016,03,19,06,45,8.90
2016,03,19,06,46,8.90
2016,03,19,06,47,8.90
2016,03,19,06,48,8.90
2016,03,19,06,49,8.90
2016,03,19,06,50,8.90
2016,03,19,06,51,8.90
2016,03,19,06,52,8.90
2016,03,19,06,53,8.90
2016,03,19,06,54,8.90
2016,03,19,06,55,8.90
2016,03,19,06,56,8.90
2016,03,19,06,57,8.90
2016,03,19,06,58,8.90
2016,03,19,06,59,8.90
2016,03,19,07,00,8.90
2016,03,19,07,01,8.90
2016,03,19,07,02,8.80
2016,03,19,07,03,8.80
2016,03,19,07,04,8.80
2016,03,19,07,05,8.80
2016,03,19,07,06,8.80
2016,03,19,07,07,8.80
2016,03,19,07,08,8.80
2016,03,19,07,09,8.70
2016,03,19,07,10,8.70
2016,03,19,07,11,8.70
2016,03,19,07,12,8.70
2016,03,19,07,13,8.70
2016,03,19,07,14,8.70
2016,03,19,07,15,8.60
2016,03,19,07,16,8.60
2016,03,19,07,17,8.60
2016,03,19,07,18,8.60
2016,03,19,07,19,8.60
2016,03,19,07,20,8.60
2016,03,19,07,21,8.60
2016,03,19,07,22,8.60
2016,03,19,07,23,8.60
2016,03,19,07,24,8.60
2016,03,19,07,25,8.60
2016,03,19,07,26,8.60
2016,03,19,07,27,8.60
2016,03,19,07,28,8.60
2016,03,19,07,29,8.60
2016,03,19,07,30,8.60
2016,03,19,07,31,8.60
2016,03,19,07,32,8.50
2016,03,19,07,33,8.50
2016,03,19,07,34,8.50
2016,03,19,07,35,8.50
2016,03,19,07,36,8.50
2016,03,19,07,37,8.50
2016,03,19,07,38,8.50
2016,03,19,07,39,8.50
2016,03,19,07,40,8.50
2016,03,19,07,41,8.50
2016,03,19,07,42,8.50
2016,03,19,07,43,8.50
2016,03,19,07,44,8.50
2016,03,19,07,45,8.50
2016,03,19,07,46,8.50
2016,03,19,07,47,8.50
2016,03,19,07,48,8.50
2016,03,19,07,49,8.50
2016,03,19,07,50,8.50
2016,03,19,07,51,8.50
2016,03,19,07,52,8.50
2016,03,19,07,53,8.50
2016,03,19,07,54,8.50
2016,03,19,07,55,8.50
2016,03,19,07,56,8.50
2016,03,19,07,57,8.50
2016,03,19,07,58,8.60
2016,03,19,07,59,8.60
2016,03,19,08,00,8.60
2016,03,19,08,01,8.60
2016,03,19,08,02,8.60
2016,03,19,08,03,8.60
2016,03,19,08,04,8.60
2016,03,19,08,05,8.60
2016,03,19,08,06,8.60
2016,03,19,08,07,8.70
2016,03,19,08,08,8.70
2016,03,19,08,09,8.70
2016,03,19,08,10,8.70
2016,03,19,08,11,8.70
2016,03,19,08,12,8.80
2016,03,19,08,13,8.80
2016,03,19,08,14,8.80
2016,03,19,08,15,8.80
2016,03,19,08,16,8.80
2016,03,19,08,17,8.80
2016,03,19,08,18,8.80
2016,03,19,08,19,8.90
2016,03,19,08,20,8.90
2016,03,19,08,21,8.90
2016,03,19,08,22,8.90
2016,03,19,08,23,9.00
2016,03,19,08,24,9.00
2016,03,19,08,25,9.00
2016,03,19,08,26,9.10
2016,03,19,08,27,9.10
2016,03,19,08,28,9.10
2016,03,19,08,29,9.10
2016,03,19,08,30,9.10
2016,03,19,08,31,9.10
2016,03,19,08,32,9.10
2016,03,19,08,33,9.10
2016,03,19,08,34,9.10
2016,03,19,08,35,9.20
2016,03,19,08,36,9.20
2016,03,19,08,37,9.20
2016,03,19,08,38,9.20
2016,03,19,08,39,9.20
2016,03,19,08,40,9.30
2016,03,19,08,41,9.30
2016,03,19,08,42,9.30
2016,03,19,08,43,9.30
2016,03,19,08,44,9.40
2016,03,19,08,45,9.40
2016,03,19,08,46,9.40
2016,03,19,08,47,9.40
2016,03,19,08,48,9.50
2016,03,19,08,49,9.60
2016,03,19,08,50,9.60
2016,03,19,08,51,9.70
2016,03,19,08,52,9.70
2016,03,19,08,53,9.80
2016,03,19,08,54,9.80
2016,03,19,08,55,9.90
2016,03,19,08,56,9.90
2016,03,19,08,57,9.90
2016,03,19,08,58,10.00
2016,03,19,08,59,10.10
2016,03,19,09,00,10.10
2016,03,19,09,01,10.10
2016,03,19,09,02,10.10
2016,03,19,09,03,10.10
2016,03,19,09,04,10.20
2016,03,19,09,05,10.20
2016,03,19,09,06,10.20
2016,03,19,09,07,10.20
2016,03,19,09,08,10.20
2016,03,19,09,09,10.20
2016,03,19,09,10,10.20
2016,03,19,09,11,10.20
2016,03,19,09,12,10.20
2016,03,19,09,13,10.20
2016,03,19,09,14,10.20
2016,03,19,09,15,10.20
2016,03,19,09,16,10.20
2016,03,19,09,17,10.20
2016,03,19,09,18,10.20
2016,03,19,09,19,10.20
2016,03,19,09,20,10.20
2016,03,19,09,21,10.20
2016,03,19,09,22,10.20
2016,03,19,09,23,10.10
2016,03,19,09,24,10.10
2016,03,19,09,25,10.10
2016,03,19,09,26,10.10
2016,03,19,09,27,10.10
2016,03,19,09,28,10.00
2016,03,19,09,29,10.00
2016,03,19,09,30,10.10
2016,03,19,09,31,10.10
2016,03,19,09,32,10.10
2016,03,19,09,33,10.10
2016,03,19,09,34,10.10
2016,03,19,09,35,10.10
2016,03,19,09,36,10.10
2016,03,19,09,37,10.10
2016,03,19,09,38,10.10
2016,03,19,09,39,10.10
2016,03,19,09,40,10.10
2016,03,19,09,41,10.20
2016,03,19,09,42,10.20
2016,03,19,09,43,10.20
2016,03,19,09,44,10.30
2016,03,19,09,45,10.30
2016,03,19,09,46,10.40
2016,03,19,09,47,10.40
2016,03,19,09,48,10.40
2016,03,19,09,49,10.50
2016,03,19,09,50,10.50
2016,03,19,09,51,10.60
2016,03,19,09,52,10.60
2016,03,19,09,53,10.70
2016,03,19,09,54,10.70
2016,03,19,09,55,10.80
2016,03,19,09,56,10.80
2016,03,19,09,57,10.90
2016,03,19,09,58,10.90
2016,03,19,09,59,10.90
2016,03,19,10,00,10.90
2016,03,19,10,01,10.90
2016,03,19,10,02,10.90
2016,03,19,10,03,10.90
2016,03,19,10,04,10.80
2016,03,19,10,05,10.80
2016,03,19,10,06,10.70
2016,03,19,10,07,10.70
2016,03,19,10,08,10.70
2016,03,19,10,09,10.60
2016,03,19,10,10,10.60
2016,03,19,10,11,10.60
2016,03,19,10,12,10.60
2016,03,19,10,13,10.60
2016,03,19,10,14,10.50
2016,03,19,10,15,10.50
2016,03,19,10,16,10.50
2016,03,19,10,17,10.50
2016,03,19,10,18,10.50
2016,03,19,10,19,10.50
2016,03,19,10,20,10.40
2016,03,19,10,21,10.50
2016,03,19,10,22,10.50
2016,03,19,10,23,10.40
2016,03,19,10,24,10.40
2016,03,19,10,25,10.40
2016,03,19,10,26,10.40
2016,03,19,10,27,10.40
2016,03,19,10,28,10.30
2016,03,19,10,29,10.40
2016,03,19,10,30,10.40
2016,03,19,10,31,10.40
2016,03,19,10,32,10.40
2016,03,19,10,33,10.40
2016,03,19,10,34,10.40
2016,03,19,10,35,10.40
2016,03,19,10,36,10.40
2016,03,19,10,37,10.40
2016,03,19,10,38,10.40
2016,03,19,10,39,10.40
2016,03,19,10,40,10.40
2016,03,19,10,41,10.40
2016,03,19,10,42,10.40
2016,03,19,10,43,10.40
2016,03,19,10,44,10.40
2016,03,19,10,45,10.40
2016,03,19,10,46,10.40
2016,03,19,10,47,10.30
2016,03,19,10,48,10.30
2016,03,19,10,49,10.30
2016,03,19,10,50,10.30
2016,03,19,10,51,10.20
2016,03,19,10,52,10.20
2016,03,19,10,53,10.20
2016,03,19,10,54,10.20
2016,03,19,10,55,10.20
2016,03,19,10,56,10.20
2016,03,19,10,57,10.20
2016,03,19,10,58,10.20
2016,03,19,10,59,10.20
2016,03,19,11,00,10.20
2016,03,19,11,01,10.20
2016,03,19,11,02,10.20
2016,03,19,11,03,10.20
2016,03,19,11,04,10.30
2016,03,19,11,05,10.30
2016,03,19,11,06,10.30
2016,03,19,11,07,10.30
2016,03,19,11,08,10.30
2016,03,19,11,09,10.30
2016,03,19,11,10,10.30
2016,03,19,11,11,10.30
2016,03,19,11,12,10.30
2016,03,19,11,13,10.50
2016,03,19,11,14,10.60
2016,03,19,11,15,10.70
2016,03,19,11,16,10.80
2016,03,19,11,17,10.80
2016,03,19,11,18,10.90
2016,03,19,11,19,10.90
2016,03,19,11,20,10.90
2016,03,19,11,21,11.00
2016,03,19,11,22,10.90
2016,03,19,11,23,11.00
2016,03,19,11,24,11.00
2016,03,19,11,25,11.00
2016,03,19,11,26,11.00
2016,03,19,11,27,11.10
2016,03,19,11,28,11.20
2016,03,19,11,29,11.20
2016,03,19,11,30,11.20
2016,03,19,11,31,11.30
2016,03,19,11,32,11.30
2016,03,19,11,33,11.40
2016,03,19,11,34,11.50
2016,03,19,11,35,11.60
2016,03,19,11,36,11.70
2016,03,19,11,37,11.80
2016,03,19,11,38,11.80
2016,03,19,11,39,11.90
2016,03,19,11,40,11.80
2016,03,19,11,41,11.90
2016,03,19,11,42,11.90
2016,03,19,11,43,11.90
2016,03,19,11,44,12.00
2016,03,19,11,45,12.10
2016,03,19,11,46,12.20
2016,03,19,11,47,12.20
2016,03,19,11,48,12.30
2016,03,19,11,49,12.30
2016,03,19,11,50,12.20
2016,03,19,11,51,12.20
2016,03,19,11,52,12.20
2016,03,19,11,53,12.20
2016,03,19,11,54,12.20
2016,03,19,11,55,12.30
2016,03,19,11,56,12.30
2016,03,19,11,57,12.40
2016,03,19,11,58,12.40
2016,03,19,11,59,12.50
2016,03,19,12,00,12.50
2016,03,19,12,01,12.50
2016,03,19,12,02,12.60
2016,03,19,12,03,12.50
2016,03,19,12,04,12.50
2016,03,19,12,05,12.50
2016,03,19,12,06,12.40
2016,03,19,12,07,12.40
2016,03,19,12,08,12.40
2016,03,19,12,09,12.50
2016,03,19,12,10,12.60
2016,03,19,12,11,12.60
2016,03,19,12,12,12.60
2016,03,19,12,13,12.60
2016,03,19,12,14,12.60
2016,03,19,12,15,12.60
2016,03,19,12,16,12.60
2016,03,19,12,17,12.60
2016,03,19,12,18,12.60
2016,03,19,12,19,12.60
2016,03,19,12,20,12.60
2016,03,19,12,21,12.60
2016,03,19,12,22,12.60
2016,03,19,12,23,12.70
2016,03,19,12,24,12.70
2016,03,19,12,25,12.80
2016,03,19,12,26,12.80
2016,03,19,12,27,12.80
2016,03,19,12,28,12.80
2016,03,19,12,29,12.80
2016,03,19,12,30,12.80
2016,03,19,12,31,12.80
2016,03,19,12,32,12.70
2016,03,19,12,33,12.70
2016,03,19,12,34,12.70
2016,03,19,12,35,12.70
2016,03,19,12,36,12.70
2016,03,19,12,37,12.70
2016,03,19,12,38,12.70
2016,03,19,12,39,12.70
2016,03,19,12,40,12.60
2016,03,19,12,41,12.60
2016,03,19,12,42,12.50
2016,03,19,12,43,12.60
2016,03,19,12,44,12.60
2016,03,19,12,45,12.60
2016,03,19,12,46,12.70
2016,03,19,12,47,12.70
2016,03,19,12,48,12.70
2016,03,19,12,49,12.70
2016,03,19,12,50,12.80
2016,03,19,12,51,12.80
2016,03,19,12,52,12.90
2016,03,19,12,53,13.00
2016,03,19,12,54,13.00
2016,03,19,12,55,13.10
2016,03,19,12,56,13.10
2016,03,19,12,57,13.00
2016,03,19,12,58,13.00
2016,03,19,12,59,13.00
2016,03,19,13,00,12.90
2016,03,19,13,01,12.80
2016,03,19,13,02,12.70
2016,03,19,13,03,12.60
2016,03,19,13,04,12.60
2016,03,19,13,05,12.60
2016,03,19,13,06,12.60
2016,03,19,13,07,12.60
2016,03,19,13,08,12.70
2016,03,19,13,09,12.90
2016,03,19,13,10,13.00
2016,03,19,13,11,13.10
2016,03,19,13,12,13.10
2016,03,19,13,13,13.20
2016,03,19,13,14,13.20
2016,03,19,13,15,13.10
2016,03,19,13,16,13.10
2016,03,19,13,17,13.10
2016,03,19,13,18,13.10
2016,03,19,13,19,13.10
2016,03,19,13,20,13.00
2016,03,19,13,21,13.00
2016,03,19,13,22,13.10
2016,03,19,13,23,13.10
2016,03,19,13,24,13.10
2016,03,19,13,25,13.10
2016,03,19,13,26,13.20
2016,03,19,13,27,13.20
2016,03,19,13,28,13.20
2016,03,19,13,29,13.20
2016,03,19,13,30,13.20
2016,03,19,13,31,13.20
2016,03,19,13,32,13.20
2016,03,19,13,33,13.20
2016,03,19,13,34,13.20
2016,03,19,13,35,13.20
2016,03,19,13,36,13.20
2016,03,19,13,37,13.10
2016,03,19,13,38,13.10
2016,03,19,13,39,13.10
2016,03,19,13,40,13.10
2016,03,19,13,41,13.10
2016,03,19,13,42,13.00
2016,03,19,13,43,13.00
2016,03,19,13,44,13.00
2016,03,19,13,45,12.90
2016,03,19,13,46,12.90
2016,03,19,13,47,12.80
2016,03,19,13,48,12.80
2016,03,19,13,49,12.70
2016,03,19,13,50,12.70
2016,03,19,13,51,12.70
2016,03,19,13,52,12.80
2016,03,19,13,53,12.80
2016,03,19,13,54,12.80
2016,03,19,13,55,12.80
2016,03,19,13,56,12.80
2016,03,19,13,57,12.70
2016,03,19,13,58,12.70
2016,03,19,13,59,12.70
2016,03,19,14,00,12.70
2016,03,19,14,01,12.70
2016,03,19,14,02,12.70
2016,03,19,14,03,12.70
2016,03,19,14,04,12.70
2016,03,19,14,05,12.60
2016,03,19,14,06,12.60
2016,03,19,14,07,12.50
2016,03,19,14,08,12.50
2016,03,19,14,09,12.50
2016,03,19,14,10,12.60
2016,03,19,14,11,12.60
2016,03,19,14,12,12.60
2016,03,19,14,13,12.60
2016,03,19,14,14,12.60
2016,03,19,14,15,12.60
2016,03,19,14,16,12.50
2016,03,19,14,17,12.50
2016,03,19,14,18,12.40
2016,03,19,14,19,12.40
2016,03,19,14,20,12.50
2016,03,19,14,21,12.60
2016,03,19,14,22,12.60
2016,03,19,14,23,12.60
2016,03,19,14,24,12.60
2016,03,19,14,25,12.70
2016,03,19,14,26,12.80
2016,03,19,14,27,12.80
2016,03,19,14,28,12.90
2016,03,19,14,29,12.90
2016,03,19,14,30,12.90
2016,03,19,14,31,12.90
2016,03,19,14,32,12.90
2016,03,19,14,33,13.00
2016,03,19,14,34,13.10
2016,03,19,14,35,13.10
2016,03,19,14,36,13.10
2016,03,19,14,37,13.10
2016,03,19,14,38,13.10
2016,03,19,14,39,13.10
2016,03,19,14,40,13.20
2016,03,19,14,41,13.20
2016,03,19,14,42,13.20
2016,03,19,14,43,13.20
2016,03,19,14,44,13.30
2016,03,19,14,45,13.30
2016,03,19,14,46,13.30
2016,03,19,14,47,13.30
2016,03,19,14,48,13.30
2016,03,19,14,49,13.40
2016,03,19,14,50,13.40
2016,03,19,14,51,13.40
2016,03,19,14,52,13.40
2016,03,19,14,53,13.40
2016,03,19,14,54,13.40
2016,03,19,14,55,13.30
2016,03,19,14,56,13.20
2016,03,19,14,57,13.10
2016,03,19,14,58,13.10
2016,03,19,14,59,13.00
2016,03,19,15,00,13.00
2016,03,19,15,01,13.00
2016,03,19,15,02,13.00
2016,03,19,15,03,12.90
2016,03,19,15,04,12.90
2016,03,19,15,05,12.90
2016,03,19,15,06,12.90
2016,03,19,15,07,12.90
2016,03,19,15,08,12.90
2016,03,19,15,09,12.90
2016,03,19,15,10,12.80
2016,03,19,15,11,12.80
2016,03,19,15,12,12.80
2016,03,19,15,13,12.80
2016,03,19,15,14,12.90
2016,03,19,15,15,12.90
2016,03,19,15,16,12.90
2016,03,19,15,17,13.00
2016,03,19,15,18,13.10
2016,03,19,15,19,13.10
2016,03,19,15,20,13.10
2016,03,19,15,21,13.20
2016,03,19,15,22,13.40
2016,03,19,15,23,13.50
2016,03,19,15,24,13.50
2016,03,19,15,25,13.50
2016,03,19,15,26,13.50
2016,03,19,15,27,13.50
2016,03,19,15,28,13.60
2016,03,19,15,29,13.60
2016,03,19,15,30,13.70
2016,03,19,15,31,13.70
2016,03,19,15,32,13.80
2016,03,19,15,33,13.90
2016,03,19,15,34,13.90
2016,03,19,15,35,13.80
2016,03,19,15,36,13.80
2016,03,19,15,37,13.70
2016,03,19,15,38,13.80
2016,03,19,15,39,13.80
2016,03,19,15,40,13.80
2016,03,19,15,41,13.80
2016,03,19,15,42,13.70
2016,03,19,15,43,13.70
2016,03,19,15,44,13.70
2016,03,19,15,45,13.70
2016,03,19,15,46,13.70
2016,03,19,15,47,13.70
2016,03,19,15,48,13.70
2016,03,19,15,49,13.60
2016,03,19,15,50,13.60
2016,03,19,15,51,13.60
2016,03,19,15,52,13.60
2016,03,19,15,53,13.60
2016,03,19,15,54,13.50
2016,03,19,15,55,13.60
2016,03,19,15,56,13.60
2016,03,19,15,57,13.60
2016,03,19,15,58,13.70
2016,03,19,15,59,13.70
2016,03,19,16,00,13.80
2016,03,19,16,01,13.80
2016,03,19,16,02,13.80
2016,03,19,16,03,13.80
2016,03,19,16,04,13.80
2016,03,19,16,05,13.90
2016,03,19,16,06,13.90
2016,03,19,16,07,13.90
2016,03,19,16,08,13.80
2016,03,19,16,09,13.70
2016,03,19,16,10,13.70
2016,03,19,16,11,13.60
2016,03,19,16,12,13.50
2016,03,19,16,13,13.40
2016,03,19,16,14,13.40
2016,03,19,16,15,13.50
2016,03,19,16,16,13.50
2016,03,19,16,17,13.50
2016,03,19,16,18,13.50
2016,03,19,16,19,13.40
2016,03,19,16,20,13.40
2016,03,19,16,21,13.40
2016,03,19,16,22,13.40
2016,03,19,16,23,13.40
2016,03,19,16,24,13.30
2016,03,19,16,25,13.30
2016,03,19,16,26,13.30
2016,03,19,16,27,13.30
2016,03,19,16,28,13.30
2016,03,19,16,29,13.30
2016,03,19,16,30,13.30
2016,03,19,16,31,13.30
2016,03,19,16,32,13.30
2016,03,19,16,33,13.30
2016,03,19,16,34,13.20
2016,03,19,16,35,13.20
2016,03,19,16,36,13.20
2016,03,19,16,37,13.20
2016,03,19,16,38,13.20
2016,03,19,16,39,13.30
2016,03,19,16,40,13.30
2016,03,19,16,41,13.30
2016,03,19,16,42,13.30
2016,03,19,16,43,13.20
2016,03,19,16,44,13.10
2016,03,19,16,45,13.10
2016,03,19,16,46,13.00
2016,03,19,16,47,13.00
2016,03,19,16,48,13.00
2016,03,19,16,49,13.00
2016,03,19,16,50,13.10
2016,03,19,16,51,13.10
2016,03,19,16,52,13.10
2016,03,19,16,53,13.10
2016,03,19,16,54,13.10
2016,03,19,16,55,13.10
2016,03,19,16,56,13.00
2016,03,19,16,57,12.90
2016,03,19,16,58,12.90
2016,03,19,16,59,12.90
2016,03,19,17,00,12.90
2016,03,19,17,01,12.90
2016,03,19,17,02,12.90
2016,03,19,17,03,12.90
2016,03,19,17,04,12.90
2016,03,19,17,05,12.90
2016,03,19,17,06,12.90
2016,03,19,17,07,13.00
2016,03,19,17,08,13.00
2016,03,19,17,09,13.00
2016,03,19,17,10,13.00
2016,03,19,17,11,13.00
2016,03,19,17,12,12.90
2016,03,19,17,13,12.90
2016,03,19,17,14,12.90
2016,03,19,17,15,12.90
2016,03,19,17,16,12.90
2016,03,19,17,17,12.90
2016,03,19,17,18,12.90
2016,03,19,17,19,12.90
2016,03,19,17,20,12.90
2016,03,19,17,21,12.90
2016,03,19,17,22,12.90
2016,03,19,17,23,12.90
2016,03,19,17,24,12.90
2016,03,19,17,25,13.00
2016,03,19,17,26,13.00
2016,03,19,17,27,13.00
2016,03,19,17,28,13.00
2016,03,19,17,29,13.00
2016,03,19,17,30,12.90
2016,03,19,17,31,12.90
2016,03,19,17,32,12.90
2016,03,19,17,33,12.90
2016,03,19,17,34,12.90
2016,03,19,17,35,12.90
2016,03,19,17,36,12.90
2016,03,19,17,37,12.80
2016,03,19,17,38,12.80
2016,03,19,17,39,12.80
2016,03,19,17,40,12.80
2016,03,19,17,41,12.80
2016,03,19,17,42,12.80